When you browse on this site, cookies collect data to enhance your experience and personalize the content and advertising you see.
Visit our Privacy Policy to learn more. By continuing to use the site, you agree to this use of cookies and data.
  • In Sweden
  • List of Countries
  • For 7 days
  • Water Temperature
  • Satellite Maps
  • Weather Map
  • Weather Widgets
  • user-avatar
    Login

    Hourly Weather Janowice

    Today, 23 May, Thursday

    Time Temperature Precipitation Wind Pressure Humidity
    00:00 +13°C° 0.1 mm 3 mps 749 mmHg 93%
    01:00 +13°C° 0.1 mm 3 mps 749 mmHg 96%
    02:00 +13°C° 0.2 mm 4 mps 749 mmHg 96%
    03:00 +13°C° 0.2 mm 4 mps 750 mmHg 96%
    04:00 +13°C° 0.2 mm 4 mps 750 mmHg 96%
    05:00 +13°C° 0.1 mm 4 mps 750 mmHg 95%
    06:00 +13°C° 0.1 mm 4 mps 750 mmHg 94%
    07:00 +14°C° 0.1 mm 4 mps 751 mmHg 93%
    08:00 +14°C° 0 mm 4 mps 751 mmHg 91%
    09:00 +14°C° 0 mm 4 mps 751 mmHg 89%
    10:00 +14°C° 0 mm 4 mps 751 mmHg 87%
    11:00 +15°C° 0 mm 5 mps 751 mmHg 84%
    12:00 +15°C° 0 mm 5 mps 752 mmHg 82%
    13:00 +16°C° 0 mm 5 mps 752 mmHg 79%
    14:00 +16°C° 0 mm 5 mps 752 mmHg 78%
    15:00 +16°C° 0 mm 5 mps 752 mmHg 77%
    16:00 +15°C° 0 mm 5 mps 752 mmHg 76%
    17:00 +15°C° 0 mm 5 mps 752 mmHg 77%
    18:00 +14°C° 0 mm 4 mps 752 mmHg 77%
    19:00 +14°C° 0 mm 3 mps 752 mmHg 78%
    20:00 +13°C° 0 mm 3 mps 752 mmHg 78%
    21:00 +12°C° 0 mm 3 mps 753 mmHg 78%
    22:00 +10°C° 0 mm 3 mps 753 mmHg 78%
    23:00 +10°C° 0 mm 3 mps 753 mmHg 78%

    Tomorrow, 24 May, Friday

    Time Temperature Precipitation Wind Pressure Humidity
    00:00 +9°C° 0 mm 3 mps 753 mmHg 79%
    01:00 +8°C° 0 mm 3 mps 753 mmHg 79%
    02:00 +8°C° 0 mm 3 mps 753 mmHg 83%
    03:00 +8°C° 0 mm 3 mps 753 mmHg 87%
    04:00 +7°C° 0 mm 2 mps 753 mmHg 91%
    05:00 +9°C° 0 mm 2 mps 753 mmHg 86%
    06:00 +11°C° 0 mm 3 mps 753 mmHg 82%
    07:00 +12°C° 0 mm 3 mps 753 mmHg 78%
    08:00 +14°C° 0 mm 3 mps 753 mmHg 71%
    09:00 +17°C° 0 mm 2 mps 753 mmHg 64%
    10:00 +18°C° 0 mm 2 mps 753 mmHg 58%
    11:00 +19°C° 0 mm 2 mps 752 mmHg 55%
    12:00 +20°C° 0 mm 2 mps 752 mmHg 52%
    13:00 +20°C° 0 mm 2 mps 752 mmHg 50%
    14:00 +20°C° 0 mm 2 mps 752 mmHg 51%
    15:00 +21°C° 0 mm 2 mps 751 mmHg 52%
    16:00 +21°C° 0 mm 2 mps 751 mmHg 53%
    17:00 +19°C° 0 mm 2 mps 751 mmHg 60%
    18:00 +18°C° 0 mm 2 mps 750 mmHg 66%
    19:00 +17°C° 0 mm 2 mps 750 mmHg 73%
    20:00 +16°C° 0 mm 2 mps 750 mmHg 76%
    21:00 +15°C° 0 mm 2 mps 750 mmHg 79%
    22:00 +14°C° 0 mm 2 mps 750 mmHg 82%
    23:00 +13°C° 0 mm 2 mps 750 mmHg 83%

    Day after tomorrow, 25 May, Saturday

    Time Temperature Precipitation Wind Pressure Humidity
    00:00 +13°C° 0 mm 2 mps 750 mmHg 84%
    01:00 +12°C° 0 mm 2 mps 750 mmHg 85%
    02:00 +11°C° 0 mm 3 mps 750 mmHg 82%
    03:00 +11°C° 0 mm 3 mps 749 mmHg 79%
    04:00 +11°C° 0 mm 3 mps 749 mmHg 76%
    05:00 +12°C° 0 mm 3 mps 749 mmHg 76%
    06:00 +13°C° 0 mm 3 mps 749 mmHg 75%
    07:00 +15°C° 0 mm 4 mps 749 mmHg 74%
    08:00 +17°C° 0 mm 4 mps 750 mmHg 71%
    09:00 +17°C° 0 mm 5 mps 750 mmHg 67%
    10:00 +19°C° 0 mm 6 mps 750 mmHg 64%
    11:00 +19°C° 0 mm 6 mps 750 mmHg 61%
    12:00 +20°C° 0 mm 6 mps 750 mmHg 59%
    13:00 +20°C° 0 mm 6 mps 750 mmHg 56%
    14:00 +19°C° 0 mm 6 mps 749 mmHg 57%
    15:00 +19°C° 0 mm 6 mps 749 mmHg 58%
    16:00 +19°C° 0 mm 6 mps 749 mmHg 59%
    17:00 +17°C° 0 mm 5 mps 749 mmHg 65%
    18:00 +16°C° 0 mm 3 mps 749 mmHg 70%
    19:00 +15°C° 0 mm 2 mps 749 mmHg 75%
    20:00 +14°C° 0 mm 2 mps 749 mmHg 78%
    21:00 +13°C° 0 mm 2 mps 749 mmHg 80%
    22:00 +11°C° 0 mm 3 mps 749 mmHg 82%
    23:00 +11°C° 0 mm 3 mps 749 mmHg 83%

    26 May, Sunday

    Time Temperature Precipitation Wind Pressure Humidity
    00:00 +11°C° 0 mm 4 mps 749 mmHg 85%
    01:00 +11°C° 0 mm 4 mps 749 mmHg 86%
    02:00 +10°C° 0 mm 4 mps 748 mmHg 86%
    03:00 +10°C° 0 mm 4 mps 748 mmHg 86%
    04:00 +8°C° 0 mm 5 mps 748 mmHg 86%
    05:00 +9°C° 0.1 mm 5 mps 748 mmHg 85%
    06:00 +9°C° 0.1 mm 6 mps 748 mmHg 83%
    07:00 +10°C° 0.1 mm 6 mps 748 mmHg 82%
    08:00 +10°C° 0.5 mm 6 mps 748 mmHg 83%
    09:00 +10°C° 0.5 mm 7 mps 748 mmHg 83%
    10:00 +9°C° 0.5 mm 7 mps 748 mmHg 84%
    11:00 +10°C° 0.4 mm 8 mps 748 mmHg 80%
    12:00 +11°C° 0.4 mm 8 mps 748 mmHg 77%
    13:00 +11°C° 0.4 mm 9 mps 748 mmHg 74%
    14:00 +11°C° 0.2 mm 8 mps 748 mmHg 75%
    15:00 +10°C° 0.2 mm 7 mps 748 mmHg 75%
    16:00 +10°C° 0.2 mm 7 mps 748 mmHg 76%
    17:00 +10°C° 0 mm 6 mps 748 mmHg 75%
    18:00 +9°C° 0 mm 6 mps 748 mmHg 74%
    19:00 +9°C° 0 mm 5 mps 749 mmHg 72%
    20:00 +8°C° 0 mm 5 mps 749 mmHg 76%
    21:00 +7°C° 0 mm 4 mps 749 mmHg 79%
    22:00 +6°C° 0 mm 4 mps 749 mmHg 83%
    23:00 +7°C° 0 mm 3 mps 749 mmHg 85%

    27 May, Monday

    Time Temperature Precipitation Wind Pressure Humidity
    00:00 +5°C° 0 mm 3 mps 750 mmHg 87%
    01:00 +5°C° 0 mm 3 mps 750 mmHg 90%
    02:00 +5°C° 0 mm 3 mps 750 mmHg 91%
    03:00 +4°C° 0 mm 3 mps 750 mmHg 92%
    04:00 +4°C° 0 mm 3 mps 750 mmHg 93%
    05:00 +7°C° 0 mm 3 mps 749 mmHg 87%
    06:00 +9°C° 0 mm 3 mps 749 mmHg 81%
    07:00 +11°C° 0 mm 4 mps 749 mmHg 75%
    08:00 +13°C° 0 mm 4 mps 749 mmHg 72%
    09:00 +15°C° 0 mm 5 mps 749 mmHg 69%
    10:00 +17°C° 0 mm 6 mps 748 mmHg 65%
    11:00 +19°C° 0.1 mm 6 mps 748 mmHg 65%
    12:00 +20°C° 0.1 mm 6 mps 747 mmHg 65%
    13:00 +22°C° 0.1 mm 6 mps 746 mmHg 65%
    14:00 +22°C° 0.5 mm 6 mps 746 mmHg 66%
    15:00 +22°C° 0.5 mm 6 mps 746 mmHg 67%
    16:00 +22°C° 0.5 mm 6 mps 746 mmHg 69%
    17:00 +21°C° 0.6 mm 5 mps 745 mmHg 73%
    18:00 +20°C° 0.6 mm 4 mps 745 mmHg 77%
    19:00 +19°C° 0.6 mm 3 mps 745 mmHg 82%
    20:00 +18°C° 0.5 mm 3 mps 745 mmHg 85%
    21:00 +16°C° 0.5 mm 3 mps 745 mmHg 88%
    22:00 +15°C° 0.5 mm 2 mps 745 mmHg 91%
    23:00 +15°C° 0.1 mm 2 mps 745 mmHg 92%

    28 May, Tuesday

    Time Temperature Precipitation Wind Pressure Humidity
    00:00 +15°C° 0.1 mm 2 mps 745 mmHg 93%
    01:00 +14°C° 0.1 mm 2 mps 745 mmHg 94%
    02:00 +14°C° 0.2 mm 2 mps 745 mmHg 94%
    03:00 +14°C° 0.2 mm 2 mps 744 mmHg 95%
    04:00 +14°C° 0.2 mm 1 mps 744 mmHg 96%
    05:00 +14°C° 0.9 mm 1 mps 744 mmHg 96%
    06:00 +15°C° 0.9 mm 1 mps 744 mmHg 96%
    07:00 +15°C° 0.9 mm 1 mps 744 mmHg 96%
    08:00 +15°C° 1.6 mm 2 mps 744 mmHg 95%
    09:00 +13°C° 1.6 mm 3 mps 744 mmHg 95%
    10:00 +13°C° 1.6 mm 4 mps 744 mmHg 95%
    11:00 +13°C° 0.3 mm 4 mps 745 mmHg 92%
    12:00 +14°C° 0.3 mm 4 mps 745 mmHg 90%
    13:00 +14°C° 0.3 mm 4 mps 745 mmHg 88%
    14:00 +16°C° 0 mm 3 mps 745 mmHg 82%
    15:00 +17°C° 0 mm 3 mps 745 mmHg 77%
    16:00 +18°C° 0 mm 3 mps 745 mmHg 72%
    17:00 +17°C° 0 mm 2 mps 746 mmHg 76%
    18:00 +16°C° 0 mm 2 mps 746 mmHg 79%
    19:00 +15°C° 0 mm 1 mps 746 mmHg 83%
    20:00 +14°C° 0 mm 1 mps 747 mmHg 86%
    21:00 +13°C° 0 mm 1 mps 747 mmHg 88%
    22:00 +13°C° 0 mm 1 mps 747 mmHg 91%
    23:00 +12°C° 0 mm 1 mps 748 mmHg 92%
    Show more